Location: Harbor View
(36.2448°N, 86.5797°W)
Time: 07:11:46
(UTC+00:00)

COSMO-SKYMED 1 - Pass Details

Date: 05 March 2021
Orbit: 621 x 623 km, 97.9° (Epoch: 13 April)

Event Time Altitude Azimuth Distance (km) Brightness Sun altitude
Rises 11:24:44 0° 180° (S) 2,888 6.0 -10.1°
Reaches altitude 10° 11:26:58 10° 185° (S) 1,986 5.1 -9.7°
Maximum altitude 11:31:09 48° 260° (W) 817 2.8 -8.8°
Drops below altitude 10° 11:35:21 10° 336° (NNW) 2,000 4.9 -8.0°
Sets 11:37:37 0° 342° (NNW) 2,911 5.8 -7.5°
